This is the latest recevied weather packets stored in our database for station/object KD9WYV. If no packets are shown the sender has not sent any weather packets the latest 1 day(s).
| Time | Temp. | Humidity | Pressure | Rain* | Wind** | Luminosity | Snow |
|---|---|---|---|---|---|---|---|
| 1777974490 | 12.78° C | 95% | 1006.5 hPa | 0 mm | 0.89 m/s, 290° | 0 W/m² | - |
| 1777974187 | 12.78° C | 96% | 1006.9 hPa | 0 mm | 1.34 m/s, 205° | 0 W/m² | - |
| 1777973883 | 12.78° C | 96% | 1006.6 hPa | 0 mm | 0.89 m/s, 194° | 0 W/m² | - |
| 1777973581 | 12.78° C | 96% | 1006.6 hPa | 0 mm | 0.45 m/s, 317° | 0 W/m² | - |
| 1777973277 | 12.78° C | 96% | 1006.3 hPa | 0 mm | 0.89 m/s, 236° | 0 W/m² | - |
| 1777972976 | 12.78° C | 96% | 1006.4 hPa | 0 mm | 0.89 m/s, 227° | 0 W/m² | - |
| 1777972672 | 12.78° C | 96% | 1006.1 hPa | 0 mm | 0.45 m/s, 95° | 0 W/m² | - |
| 1777972371 | 12.78° C | 96% | 1005.8 hPa | 0 mm | 0.89 m/s, 54° | 0 W/m² | - |
| 1777972068 | 12.78° C | 96% | 1006.1 hPa | 0 mm | 1.34 m/s, 130° | 0 W/m² | - |
| 1777971766 | 12.78° C | 96% | 1006.3 hPa | 0 mm | 2.24 m/s, 237° | 0 W/m² | - |
| 1777971463 | 12.78° C | 96% | 1005.7 hPa | 0 mm | 0.89 m/s, 84° | 0 W/m² | - |
| 1777971162 | 12.78° C | 96% | 1005.7 hPa | 0 mm | 0.89 m/s, 144° | 0 W/m² | - |
| 1777970858 | 12.78° C | 96% | 1005.7 hPa | 0 mm | 2.24 m/s, 145° | 0 W/m² | - |
| 1777970558 | 12.78° C | 96% | 1005.1 hPa | 1.78 mm | 1.79 m/s, 162° | 0 W/m² | - |
| 1777970254 | 12.78° C | 96% | 1004.9 hPa | 4.83 mm | 1.34 m/s, 125° | 0 W/m² | - |
| 1777969951 | 12.78° C | 96% | 1006.1 hPa | 6.1 mm | 3.13 m/s, 119° | 0 W/m² | - |
| 1777969646 | 13.33° C | 96% | 1006.6 hPa | 6.1 mm | 2.24 m/s, 115° | 0 W/m² | - |
| 1777969344 | 13.33° C | 96% | 1007.3 hPa | 6.1 mm | 1.79 m/s, 152° | 0 W/m² | - |
| 1777969040 | 13.33° C | 96% | 1007.7 hPa | 6.1 mm | 0.45 m/s, 53° | 0 W/m² | - |
| 1777968737 | 13.33° C | 96% | 1007.9 hPa | 6.1 mm | 1.34 m/s, 155° | 0 W/m² | - |
| 1777968434 | 13.33° C | 96% | 1007.8 hPa | 6.6 mm | 0.45 m/s, 299° | 0 W/m² | - |
| 1777968130 | 13.33° C | 96% | 1008.1 hPa | 4.83 mm | 0.45 m/s, 244° | 0 W/m² | - |
| 1777967826 | 13.33° C | 96% | 1007.9 hPa | 6.1 mm | 0.45 m/s, 22° | 0 W/m² | - |
| 1777967523 | 13.33° C | 96% | 1008.3 hPa | 8.89 mm | 0.45 m/s, 287° | 0 W/m² | - |
| 1777967220 | 13.33° C | 95% | 1008.1 hPa | 8.89 mm | 0.89 m/s, 301° | 0 W/m² | - |
* Rain latest hour (hover to see other rain measurements)
** Current wind speed in m/s (hover to see current wind gust speed)